SBI275 LLBG-VABB

Flight info

Callsign SBI275
Flight time N/A
Altitude 33000
Route SALAM N134 TULEP N318 NEVOL Q255 LUDEP P559 AMBOV Q322 LOVEM/N0460F350 Q572 SERSA P307 PARAR N571 SUGID KETOR2A
Aircraft A321/M-SDE3FGHIRWY/LB1

Departure

Time 2026-05-05 08:00
Airport Ben Gurion International Airport (LLBG)

Arrival

Time N/A
Airport Chhatrapati Shivaji Maharaj International Airport (VABB)
Time Latitude Longitude Altitude Speed Heading
2026-05-05 07:09 32.00400 34.86641 114 ft 0 kts 308°
2026-05-05 07:47 32.00397 34.86646 113 ft 3 kts 307°
2026-05-05 07:47 32.00384 34.86668 114 ft 3 kts 300°
2026-05-05 07:48 32.00373 34.86692 113 ft 3 kts 295°
2026-05-05 07:48 32.00363 34.86717 111 ft 3 kts 298°
2026-05-05 07:48 32.00351 34.86738 112 ft 2 kts 324°
2026-05-05 07:48 32.00349 34.86739 112 ft 1 kts 326°
2026-05-05 07:50 32.00359 34.86732 113 ft 4 kts 326°
2026-05-05 07:51 32.00390 34.86725 112 ft 6 kts 26°
2026-05-05 07:51 32.00431 34.86756 114 ft 9 kts 32°
2026-05-05 07:51 32.00486 34.86795 114 ft 9 kts 31°
2026-05-05 07:51 32.00534 34.86831 114 ft 8 kts 31°
2026-05-05 07:52 32.00576 34.86860 115 ft 6 kts 31°
2026-05-05 07:52 32.00613 34.86886 115 ft 6 kts 31°
2026-05-05 07:52 32.00659 34.86919 112 ft 11 kts 31°
2026-05-05 07:52 32.00731 34.86987 114 ft 11 kts 63°
2026-05-05 07:53 32.00719 34.87095 116 ft 15 kts 101°
2026-05-05 07:53 32.00734 34.87221 115 ft 15 kts 76°
2026-05-05 07:53 32.00755 34.87330 115 ft 13 kts 82°
2026-05-05 07:53 32.00731 34.87415 117 ft 9 kts 120°
2026-05-05 07:54 32.00695 34.87482 116 ft 12 kts 122°
2026-05-05 07:54 32.00670 34.87532 118 ft 7 kts 121°
2026-05-05 07:54 32.00635 34.87600 115 ft 12 kts 121°
2026-05-05 07:54 32.00603 34.87683 119 ft 11 kts 88°
2026-05-05 07:55 32.00622 34.87770 119 ft 13 kts 104°
2026-05-05 07:55 32.00587 34.87869 118 ft 13 kts 97°
2026-05-05 07:55 32.00647 34.87959 116 ft 17 kts 32°
2026-05-05 07:55 32.00750 34.88031 117 ft 17 kts 31°
2026-05-05 07:56 32.00847 34.88101 119 ft 16 kts 32°
2026-05-05 07:56 32.00939 34.88169 117 ft 15 kts 31°
2026-05-05 07:56 32.01025 34.88230 120 ft 14 kts 31°
2026-05-05 07:56 32.01106 34.88286 120 ft 14 kts 31°
2026-05-05 07:57 32.01207 34.88360 123 ft 20 kts 34°
2026-05-05 07:57 32.01333 34.88478 125 ft 26 kts 45°
2026-05-05 07:57 32.01437 34.88646 125 ft 25 kts 63°
2026-05-05 07:57 32.01494 34.88828 125 ft 23 kts 76°
2026-05-05 07:58 32.01517 34.88981 127 ft 11 kts 80°
2026-05-05 07:58 32.01530 34.89071 129 ft 11 kts 80°
2026-05-05 07:58 32.01566 34.89143 129 ft 10 kts 33°
2026-05-05 07:58 32.01636 34.89148 126 ft 12 kts 352°
2026-05-05 07:59 32.01727 34.89120 126 ft 13 kts 320°
2026-05-05 07:59 32.01734 34.89024 129 ft 16 kts 261°
2026-05-05 07:59 32.01682 34.88679 126 ft 75 kts 259°
2026-05-05 07:59 32.01554 34.87851 118 ft 128 kts 260°
2026-05-05 08:00 32.01366 34.86646 116 ft 168 kts 258°
2026-05-05 08:00 32.01131 34.85288 577 ft 173 kts 256°
2026-05-05 08:00 32.00832 34.83906 1128 ft 176 kts 254°
2026-05-05 08:00 32.00539 34.82449 1425 ft 192 kts 256°
2026-05-05 08:01 32.00215 34.80837 1557 ft 212 kts 256°
2026-05-05 08:01 31.99856 34.79077 1892 ft 224 kts 255°
2026-05-05 08:01 31.99487 34.77272 2516 ft 229 kts 256°
2026-05-05 08:01 31.99179 34.75430 3165 ft 231 kts 269°
2026-05-05 08:02 31.99560 34.73585 3802 ft 236 kts 290°
2026-05-05 08:02 32.00178 34.71785 4458 ft 237 kts 287°
2026-05-05 08:02 32.00745 34.69958 5094 ft 239 kts 287°
2026-05-05 08:02 32.01304 34.68105 5720 ft 241 kts 287°
2026-05-05 08:03 32.01869 34.66237 6324 ft 245 kts 287°
2026-05-05 08:03 32.02449 34.64337 6899 ft 246 kts 287°
2026-05-05 08:03 32.02920 34.62391 7427 ft 249 kts 278°
2026-05-05 08:03 32.03432 34.60435 7891 ft 255 kts 297°
2026-05-05 08:04 32.04645 34.58907 7986 ft 261 kts 326°
2026-05-05 08:04 32.06390 34.58269 7994 ft 270 kts 354°
2026-05-05 08:04 32.08231 34.58739 7998 ft 281 kts 25°
2026-05-05 08:04 32.09677 34.60300 8000 ft 287 kts 58°
2026-05-05 08:05 32.10254 34.62537 7996 ft 289 kts 92°
2026-05-05 08:05 32.09783 34.64796 7997 ft 285 kts 124°
2026-05-05 08:05 32.08696 34.66749 7999 ft 285 kts 127°
2026-05-05 08:05 32.07579 34.68681 7999 ft 285 kts 127°
2026-05-05 08:06 32.06462 34.70609 8006 ft 284 kts 127°
2026-05-05 08:06 32.05340 34.72540 8007 ft 285 kts 127°
2026-05-05 08:06 32.04221 34.74470 8003 ft 285 kts 127°
2026-05-05 08:06 32.03117 34.76384 8009 ft 286 kts 127°
2026-05-05 08:07 32.01999 34.78325 8009 ft 286 kts 127°
2026-05-05 08:07 32.00882 34.80266 8009 ft 286 kts 127°
2026-05-05 08:07 31.99764 34.82208 8009 ft 286 kts 127°
2026-05-05 08:07 31.98648 34.84146 8011 ft 286 kts 127°
2026-05-05 08:08 31.97574 34.86123 8006 ft 287 kts 119°
2026-05-05 08:08 31.96899 34.88350 8017 ft 295 kts 102°
2026-05-05 08:08 31.96710 34.90801 8430 ft 303 kts 93°
2026-05-05 08:08 31.96591 34.93292 9019 ft 306 kts 94°
2026-05-05 08:09 31.96457 34.95806 9580 ft 310 kts 94°
2026-05-05 08:09 31.96313 34.98361 10113 ft 314 kts 94°
2026-05-05 08:09 31.96165 35.00988 10292 ft 331 kts 94°
2026-05-05 08:09 31.96010 35.03767 10417 ft 348 kts 94°
2026-05-05 08:10 31.95848 35.06639 10535 ft 364 kts 93°
2026-05-05 08:10 31.95678 35.09675 10658 ft 379 kts 93°
2026-05-05 08:10 31.95507 35.12816 10928 ft 389 kts 93°
2026-05-05 08:10 31.95334 35.16019 11344 ft 393 kts 94°
2026-05-05 08:11 31.95159 35.19244 11818 ft 396 kts 93°
2026-05-05 08:11 31.94981 35.22506 12255 ft 401 kts 94°
2026-05-05 08:11 31.94802 35.25799 12690 ft 404 kts 94°
2026-05-05 08:11 31.94617 35.29102 13216 ft 405 kts 94°
2026-05-05 08:12 31.94426 35.32439 13655 ft 410 kts 94°
2026-05-05 08:12 31.94232 35.35804 14049 ft 413 kts 94°
2026-05-05 08:12 31.94041 35.39185 14422 ft 415 kts 94°
2026-05-05 08:12 31.93851 35.42591 14753 ft 419 kts 94°
2026-05-05 08:13 31.93656 35.46029 15133 ft 421 kts 94°
2026-05-05 08:13 31.93458 35.49478 15501 ft 424 kts 94°
2026-05-05 08:13 31.93263 35.52957 15879 ft 428 kts 94°
2026-05-05 08:13 31.93115 35.56479 16213 ft 432 kts 92°
2026-05-05 08:14 31.92890 35.59965 16554 ft 434 kts 99°
2026-05-05 08:14 31.92238 35.63435 16904 ft 435 kts 110°
2026-05-05 08:14 31.91092 35.66770 17251 ft 434 kts 118°
2026-05-05 08:14 31.89801 35.69951 17555 ft 437 kts 118°
2026-05-05 08:15 31.88483 35.73182 17870 ft 439 kts 118°
2026-05-05 08:15 31.87153 35.76438 18177 ft 442 kts 118°
2026-05-05 08:15 31.85822 35.79702 18498 ft 443 kts 118°
2026-05-05 08:15 31.84486 35.82986 18766 ft 445 kts 118°
2026-05-05 08:16 31.83144 35.86290 19034 ft 447 kts 118°
2026-05-05 08:16 31.81818 35.89557 19294 ft 449 kts 119°
2026-05-05 08:16 31.80472 35.92876 19554 ft 451 kts 119°
2026-05-05 08:16 31.79112 35.96226 19807 ft 453 kts 119°
2026-05-05 08:17 31.77749 35.99577 20074 ft 455 kts 119°
2026-05-05 08:17 31.76376 36.02952 20347 ft 457 kts 119°
2026-05-05 08:17 31.74999 36.06330 20609 ft 459 kts 120°
2026-05-05 08:17 31.73613 36.09722 20886 ft 461 kts 120°
2026-05-05 08:18 31.72233 36.13083 21150 ft 463 kts 120°
2026-05-05 08:18 31.70825 36.16504 21414 ft 465 kts 120°
2026-05-05 08:18 31.69414 36.19936 21684 ft 467 kts 120°
2026-05-05 08:18 31.67999 36.23382 21954 ft 469 kts 120°
2026-05-05 08:19 31.66579 36.26841 22218 ft 472 kts 121°
2026-05-05 08:19 31.65144 36.30330 22488 ft 474 kts 121°
2026-05-05 08:19 31.64196 36.32637 22666 ft 475 kts 121°
2026-05-05 08:19 31.62758 36.36140 22920 ft 477 kts 121°
2026-05-05 08:20 31.61311 36.39657 23172 ft 480 kts 121°
2026-05-05 08:20 31.59858 36.43180 23433 ft 481 kts 121°
2026-05-05 08:20 31.58395 36.46720 23676 ft 483 kts 122°
2026-05-05 08:20 31.56923 36.50276 23858 ft 485 kts 122°
2026-05-05 08:21 31.55447 36.53844 24065 ft 487 kts 122°
2026-05-05 08:21 31.53960 36.57433 24267 ft 489 kts 122°
2026-05-05 08:21 31.52470 36.61026 24487 ft 490 kts 122°
2026-05-05 08:21 31.50993 36.64584 24700 ft 492 kts 122°
2026-05-05 08:22 31.49496 36.68189 24911 ft 493 kts 122°
2026-05-05 08:22 31.47992 36.71807 25125 ft 495 kts 122°
2026-05-05 08:22 31.46480 36.75441 25306 ft 496 kts 122°
2026-05-05 08:22 31.44966 36.79079 25520 ft 498 kts 123°
2026-05-05 08:23 31.43444 36.82728 25732 ft 499 kts 123°
2026-05-05 08:23 31.41918 36.86384 25931 ft 501 kts 123°
2026-05-05 08:23 31.40381 36.90059 26131 ft 502 kts 123°
2026-05-05 08:23 31.38840 36.93741 26325 ft 504 kts 123°
2026-05-05 08:24 31.37295 36.97432 26538 ft 505 kts 123°
2026-05-05 08:24 31.35747 37.01128 26725 ft 506 kts 123°
2026-05-05 08:24 31.34195 37.04833 26913 ft 508 kts 123°
2026-05-05 08:24 31.32637 37.08544 27094 ft 509 kts 123°
2026-05-05 08:25 31.31073 37.12264 27268 ft 510 kts 123°
2026-05-05 08:25 31.29525 37.15937 27439 ft 511 kts 123°
2026-05-05 08:25 31.27945 37.19676 27595 ft 512 kts 123°
2026-05-05 08:25 31.26374 37.23426 27748 ft 515 kts 121°
2026-05-05 08:26 31.25079 37.27349 27874 ft 520 kts 115°
2026-05-05 08:26 31.23886 37.31350 28096 ft 520 kts 115°
2026-05-05 08:26 31.22691 37.35342 28302 ft 519 kts 115°
2026-05-05 08:26 31.21494 37.39316 28500 ft 519 kts 115°
2026-05-05 08:27 31.20289 37.43294 28702 ft 518 kts 116°
2026-05-05 08:27 31.19082 37.47261 28907 ft 517 kts 116°
2026-05-05 08:27 31.17890 37.51171 29080 ft 517 kts 116°
2026-05-05 08:27 31.16682 37.55130 29301 ft 516 kts 116°
2026-05-05 08:28 31.15476 37.59093 29479 ft 516 kts 116°
2026-05-05 08:28 31.14277 37.63038 29666 ft 516 kts 116°
2026-05-05 08:28 31.13093 37.66945 29847 ft 515 kts 116°
2026-05-05 08:28 31.11897 37.70893 30031 ft 515 kts 116°
2026-05-05 08:29 31.10703 37.74831 30190 ft 514 kts 116°
2026-05-05 08:29 31.09507 37.78763 30352 ft 514 kts 116°
2026-05-05 08:29 31.08309 37.82687 30495 ft 514 kts 117°
2026-05-05 08:30 31.05905 37.90543 30789 ft 514 kts 117°
2026-05-05 08:30 31.04704 37.94463 30930 ft 514 kts 117°
2026-05-05 08:30 31.03500 37.98385 31052 ft 514 kts 117°
2026-05-05 08:30 31.02295 38.02315 31190 ft 514 kts 117°
2026-05-05 08:31 31.01090 38.06239 31327 ft 514 kts 117°
2026-05-05 08:31 30.99877 38.10174 31471 ft 514 kts 117°
2026-05-05 08:31 30.98666 38.14093 31611 ft 514 kts 117°
2026-05-05 08:31 30.97466 38.17979 31767 ft 514 kts 118°
2026-05-05 08:32 30.96256 38.21898 31871 ft 514 kts 118°
2026-05-05 08:32 30.95040 38.25834 31994 ft 515 kts 118°
2026-05-05 08:32 30.93824 38.29764 32118 ft 516 kts 118°
2026-05-05 08:32 30.92606 38.33693 32244 ft 516 kts 118°
2026-05-05 08:33 30.91383 38.37631 32372 ft 516 kts 118°
2026-05-05 08:33 30.90157 38.41567 32509 ft 516 kts 118°
2026-05-05 08:33 30.88934 38.45490 32640 ft 516 kts 118°
2026-05-05 08:33 30.87704 38.49432 32785 ft 516 kts 118°
2026-05-05 08:34 30.86492 38.53313 32910 ft 516 kts 118°
2026-05-05 08:34 30.85263 38.57245 33061 ft 516 kts 118°
2026-05-05 08:34 30.84036 38.61175 33199 ft 516 kts 118°
2026-05-05 08:34 30.82812 38.65098 33334 ft 516 kts 118°
2026-05-05 08:35 30.81583 38.69026 33434 ft 516 kts 119°
2026-05-05 08:35 30.80352 38.72943 33567 ft 516 kts 119°
2026-05-05 08:35 30.79091 38.76862 33700 ft 512 kts 122°
2026-05-05 08:35 30.77571 38.80567 33838 ft 505 kts 126°
2026-05-05 08:36 30.75996 38.84227 33967 ft 505 kts 127°
2026-05-05 08:36 30.74423 38.87884 34098 ft 505 kts 126°
2026-05-05 08:36 30.72872 38.91499 34184 ft 505 kts 126°
2026-05-05 08:36 30.71304 38.95157 34296 ft 505 kts 126°
2026-05-05 08:37 30.69741 38.98806 34416 ft 504 kts 126°
2026-05-05 08:37 30.68178 39.02452 34530 ft 504 kts 126°
2026-05-05 08:37 30.66617 39.06086 34649 ft 503 kts 126°
2026-05-05 08:37 30.65051 39.09724 34763 ft 503 kts 127°
2026-05-05 08:38 30.63475 39.13374 34840 ft 502 kts 127°
2026-05-05 08:38 30.61929 39.16949 34987 ft 500 kts 127°
2026-05-05 08:38 30.60368 39.20561 35067 ft 501 kts 127°
2026-05-05 08:39 30.57207 39.27852 35076 ft 506 kts 127°
2026-05-05 08:39 30.54054 39.35129 35077 ft 508 kts 127°
2026-05-05 08:40 30.50875 39.42461 35074 ft 508 kts 127°
2026-05-05 08:40 30.47712 39.49730 35085 ft 508 kts 127°
2026-05-05 08:41 30.44513 39.57085 35081 ft 508 kts 127°
2026-05-05 08:41 30.41342 39.64359 35065 ft 508 kts 127°
2026-05-05 08:42 30.38271 39.71759 35072 ft 511 kts 124°
2026-05-05 08:42 30.35348 39.79279 35076 ft 512 kts 123°
2026-05-05 08:43 30.32424 39.86788 35066 ft 511 kts 124°
2026-05-05 08:43 30.29443 39.94261 35079 ft 511 kts 124°
2026-05-05 08:44 30.26448 40.01710 35090 ft 511 kts 124°
2026-05-05 08:44 30.23458 40.09166 35078 ft 510 kts 124°
2026-05-05 08:45 30.20486 40.16573 35080 ft 510 kts 124°
2026-05-05 08:45 30.17496 40.24018 35083 ft 510 kts 124°
2026-05-05 08:46 30.14501 40.31451 35076 ft 509 kts 124°
2026-05-05 08:46 30.11516 40.38835 35081 ft 509 kts 124°
2026-05-05 08:47 30.08513 40.46244 35085 ft 509 kts 124°
2026-05-05 08:47 30.05510 40.53646 35065 ft 509 kts 124°
2026-05-05 08:48 30.02506 40.61055 35070 ft 509 kts 124°
2026-05-05 08:48 29.99496 40.68468 35076 ft 509 kts 124°
2026-05-05 08:49 29.96482 40.75859 35075 ft 509 kts 124°
2026-05-05 08:49 29.93455 40.83247 35078 ft 509 kts 124°
2026-05-05 08:50 29.90429 40.90621 35076 ft 509 kts 124°
2026-05-05 08:50 29.87418 40.97971 35058 ft 509 kts 124°
2026-05-05 08:51 29.84391 41.05357 35059 ft 509 kts 124°
2026-05-05 08:51 29.81339 41.12759 35063 ft 509 kts 124°
2026-05-05 08:52 29.78297 41.20128 35038 ft 510 kts 124°
2026-05-05 08:52 29.75269 41.27454 35046 ft 510 kts 124°
2026-05-05 08:53 29.72531 41.35102 35034 ft 518 kts 118°
2026-05-05 08:53 29.70126 41.42863 35050 ft 518 kts 118°
2026-05-05 08:54 29.67693 41.50658 35051 ft 518 kts 118°
2026-05-05 08:54 29.65250 41.58465 35034 ft 518 kts 118°
2026-05-05 08:55 29.62810 41.66247 35045 ft 517 kts 118°
2026-05-05 08:55 29.60368 41.74025 35043 ft 517 kts 118°
2026-05-05 08:56 29.57922 41.81792 35027 ft 517 kts 118°
2026-05-05 08:56 29.55474 41.89548 35038 ft 516 kts 118°
2026-05-05 08:57 29.53025 41.97298 35034 ft 516 kts 118°
2026-05-05 08:57 29.50572 42.05058 35013 ft 516 kts 118°
2026-05-05 08:58 29.48131 42.12751 35016 ft 515 kts 118°
2026-05-05 08:58 29.45663 42.20492 35000 ft 515 kts 118°
2026-05-05 08:59 29.43194 42.28217 35008 ft 515 kts 118°
2026-05-05 08:59 29.40725 42.35942 35011 ft 515 kts 118°
2026-05-05 09:00 29.38254 42.43662 35001 ft 515 kts 118°
2026-05-05 09:00 29.35791 42.51329 35002 ft 515 kts 118°
2026-05-05 09:01 29.33301 42.59050 34999 ft 515 kts 118°
2026-05-05 09:01 29.30828 42.66720 34983 ft 515 kts 118°
2026-05-05 09:02 29.28743 42.73168 34980 ft 515 kts 118°
2026-05-05 09:02 29.26253 42.80833 34986 ft 515 kts 118°
2026-05-05 09:03 29.23753 42.88528 34985 ft 515 kts 118°
2026-05-05 09:03 29.21247 42.96218 34986 ft 515 kts 118°
2026-05-05 09:04 29.18751 43.03876 34971 ft 516 kts 118°
2026-05-05 09:04 29.16134 43.11515 34970 ft 509 kts 125°
2026-05-05 09:05 29.12669 43.18433 34971 ft 502 kts 130°
2026-05-05 09:05 29.09125 43.25343 34952 ft 503 kts 129°
2026-05-05 09:06 29.05593 43.32263 34958 ft 503 kts 129°
2026-05-05 09:06 29.02053 43.39180 34958 ft 503 kts 129°
2026-05-05 09:07 28.98518 43.46047 34934 ft 504 kts 130°
2026-05-05 09:07 28.94961 43.52949 34940 ft 504 kts 130°
2026-05-05 09:08 28.91408 43.59852 34943 ft 505 kts 129°
2026-05-05 09:08 28.87869 43.66733 34929 ft 505 kts 130°
2026-05-05 09:09 28.84298 43.73637 34937 ft 505 kts 130°
2026-05-05 09:09 28.80706 43.80558 34944 ft 505 kts 130°
2026-05-05 09:10 28.77119 43.87472 34926 ft 505 kts 130°
2026-05-05 09:10 28.73563 43.94320 34933 ft 506 kts 130°
2026-05-05 09:11 28.69969 44.01205 34937 ft 505 kts 130°
2026-05-05 09:11 28.66375 44.08089 34924 ft 505 kts 130°
2026-05-05 09:12 28.62789 44.14970 34928 ft 505 kts 130°
2026-05-05 09:12 28.59196 44.21830 34936 ft 505 kts 130°
2026-05-05 09:13 28.55600 44.28678 34918 ft 504 kts 130°
2026-05-05 09:13 28.52003 44.35532 34905 ft 504 kts 130°
2026-05-05 09:14 28.48397 44.42390 34904 ft 503 kts 130°
2026-05-05 09:14 28.44828 44.49171 34915 ft 502 kts 130°
2026-05-05 09:15 28.41240 44.55979 34934 ft 502 kts 130°
2026-05-05 09:15 28.37648 44.62775 34915 ft 501 kts 130°
2026-05-05 09:16 28.34046 44.69566 34921 ft 501 kts 130°
2026-05-05 09:16 28.30448 44.76347 34926 ft 501 kts 130°
2026-05-05 09:17 28.26845 44.83131 34926 ft 501 kts 130°
2026-05-05 09:17 28.23260 44.89884 34925 ft 501 kts 130°
2026-05-05 09:18 28.19650 44.96670 34925 ft 501 kts 130°
2026-05-05 09:18 28.16033 45.03449 34908 ft 501 kts 130°
2026-05-05 09:19 28.12447 45.10153 34913 ft 500 kts 130°
2026-05-05 09:19 28.08845 45.16903 34891 ft 500 kts 130°
2026-05-05 09:20 28.05241 45.23644 34896 ft 499 kts 130°
2026-05-05 09:20 28.01650 45.30323 34901 ft 499 kts 130°
2026-05-05 09:21 27.98044 45.37024 34882 ft 498 kts 130°
2026-05-05 09:21 27.94443 45.43723 34886 ft 498 kts 130°
2026-05-05 09:22 27.90832 45.50436 34888 ft 498 kts 130°
2026-05-05 09:22 27.87748 45.57500 34887 ft 515 kts 115°
2026-05-05 09:23 27.86038 45.65434 34880 ft 521 kts 110°
2026-05-05 09:23 27.84411 45.73431 34873 ft 521 kts 110°
2026-05-05 09:24 27.82761 45.81415 34863 ft 522 kts 110°
2026-05-05 09:24 27.81095 45.89396 34858 ft 522 kts 110°
2026-05-05 09:25 27.79437 45.97399 34843 ft 523 kts 110°
2026-05-05 09:25 27.77793 46.05356 34844 ft 523 kts 110°
2026-05-05 09:26 27.76131 46.13367 34850 ft 523 kts 110°
2026-05-05 09:26 27.74449 46.21362 34854 ft 523 kts 110°
2026-05-05 09:27 27.72766 46.29370 34854 ft 524 kts 110°
2026-05-05 09:27 27.71108 46.37346 34836 ft 524 kts 110°
2026-05-05 09:28 27.69433 46.45355 34840 ft 524 kts 110°
2026-05-05 09:28 27.67749 46.53374 34842 ft 525 kts 110°
2026-05-05 09:29 27.66060 46.61383 34836 ft 525 kts 111°
2026-05-05 09:29 27.64363 46.69410 34813 ft 525 kts 111°
2026-05-05 09:30 27.62672 46.77399 34817 ft 526 kts 111°
2026-05-05 09:30 27.60974 46.85389 34820 ft 526 kts 111°
2026-05-05 09:31 27.59263 46.93418 34831 ft 526 kts 111°
2026-05-05 09:31 27.57547 47.01440 34825 ft 526 kts 111°
2026-05-05 09:32 27.55832 47.09431 34812 ft 527 kts 111°
2026-05-05 09:32 27.54101 47.17467 34809 ft 527 kts 111°
2026-05-05 09:33 27.52367 47.25499 34806 ft 527 kts 111°
2026-05-05 09:33 27.50630 47.33540 34805 ft 528 kts 111°
2026-05-05 09:34 27.48884 47.41568 34800 ft 528 kts 111°
2026-05-05 09:34 27.47128 47.49593 34791 ft 528 kts 111°
2026-05-05 09:35 27.45373 47.57629 34795 ft 528 kts 111°
2026-05-05 09:35 27.42486 47.69507 34805 ft 523 kts 115°
2026-05-05 09:36 27.40174 47.77272 34812 ft 522 kts 116°
2026-05-05 09:36 27.37854 47.85014 34800 ft 522 kts 115°
2026-05-05 09:37 27.35627 47.92787 34806 ft 522 kts 115°
2026-05-05 09:37 27.33451 48.00539 34811 ft 522 kts 115°
2026-05-05 09:38 27.31243 48.08316 34802 ft 521 kts 115°
2026-05-05 09:38 27.29088 48.16115 34793 ft 522 kts 113°
2026-05-05 09:39 27.27050 48.23961 34798 ft 522 kts 112°
2026-05-05 09:39 27.25021 48.31799 34801 ft 521 kts 113°
2026-05-05 09:40 27.22957 48.39558 34794 ft 521 kts 113°
2026-05-05 09:40 27.20866 48.47351 34783 ft 521 kts 113°
2026-05-05 09:41 27.18775 48.55150 34776 ft 521 kts 113°
2026-05-05 09:41 27.16682 48.62942 34777 ft 521 kts 113°
2026-05-05 09:42 27.14589 48.70707 34772 ft 520 kts 113°
2026-05-05 09:42 27.12494 48.78487 34771 ft 520 kts 113°
2026-05-05 09:43 27.10424 48.86288 34764 ft 523 kts 109°
2026-05-05 09:43 27.09547 48.94453 34766 ft 531 kts 97°
2026-05-05 09:44 27.09190 49.02692 34762 ft 531 kts 97°
2026-05-05 09:44 27.08810 49.10996 34747 ft 531 kts 97°
2026-05-05 09:45 27.08491 49.17880 34756 ft 531 kts 97°
2026-05-05 09:45 27.08100 49.26170 34763 ft 531 kts 97°
2026-05-05 09:46 27.07695 49.34463 34748 ft 531 kts 97°
2026-05-05 09:46 27.07283 49.42734 34757 ft 531 kts 97°
2026-05-05 09:47 27.06884 49.51023 34754 ft 531 kts 97°
2026-05-05 09:47 27.06480 49.59299 34765 ft 531 kts 97°
2026-05-05 09:48 27.06070 49.67570 34773 ft 531 kts 97°
2026-05-05 09:48 27.05654 49.75789 34780 ft 530 kts 97°
2026-05-05 09:49 27.05234 49.84080 34794 ft 530 kts 97°
2026-05-05 09:49 27.04815 49.92302 34798 ft 530 kts 97°
2026-05-05 09:50 27.04456 50.00559 34782 ft 531 kts 94°
2026-05-05 09:50 27.04498 50.08857 34794 ft 531 kts 91°
2026-05-05 09:51 27.04720 50.17152 34799 ft 531 kts 91°
2026-05-05 09:51 27.04866 50.25439 34807 ft 531 kts 92°
2026-05-05 09:52 27.04829 50.33678 34799 ft 528 kts 99°
2026-05-05 09:52 27.03286 50.41634 34795 ft 516 kts 116°
2026-05-05 09:53 27.00532 50.49035 34789 ft 513 kts 119°
2026-05-05 09:53 26.97748 50.56366 34779 ft 514 kts 119°
2026-05-05 09:54 26.94954 50.63738 34783 ft 514 kts 119°
2026-05-05 09:54 26.92147 50.71112 34788 ft 514 kts 119°
2026-05-05 09:55 26.89327 50.78495 34790 ft 514 kts 119°
2026-05-05 09:55 26.86512 50.85855 34769 ft 514 kts 119°
2026-05-05 09:56 26.83698 50.93205 34801 ft 513 kts 119°
2026-05-05 09:56 26.80902 51.00494 34804 ft 512 kts 119°
2026-05-05 09:57 26.78102 51.07841 34808 ft 512 kts 119°
2026-05-05 09:57 26.75474 51.15262 34805 ft 514 kts 115°
2026-05-05 09:58 26.73132 51.22845 34790 ft 515 kts 114°
2026-05-05 09:58 26.70834 51.30363 34800 ft 514 kts 114°
2026-05-05 09:59 26.68439 51.37880 34808 ft 513 kts 115°
2026-05-05 09:59 26.65990 51.45386 34801 ft 513 kts 115°
2026-05-05 10:00 26.63546 51.52908 34794 ft 514 kts 115°
2026-05-05 10:00 26.61143 51.60389 34785 ft 514 kts 115°
2026-05-05 10:01 26.58726 51.67904 34793 ft 514 kts 115°
2026-05-05 10:01 26.56298 51.75411 34797 ft 513 kts 115°
2026-05-05 10:02 26.53860 51.82925 34783 ft 513 kts 115°
2026-05-05 10:02 26.51433 51.90409 34800 ft 512 kts 115°
2026-05-05 10:03 26.48970 51.97872 34799 ft 511 kts 115°
2026-05-05 10:03 26.46498 52.05257 34797 ft 511 kts 115°
2026-05-05 10:04 26.44001 52.12679 34806 ft 510 kts 115°
2026-05-05 10:04 26.41519 52.20105 34807 ft 510 kts 115°
2026-05-05 10:05 26.39044 52.27512 34807 ft 509 kts 115°
2026-05-05 10:05 26.36574 52.34875 34795 ft 509 kts 115°
2026-05-05 10:06 26.34028 52.42235 34800 ft 508 kts 117°
2026-05-05 10:06 26.31250 52.49466 34801 ft 506 kts 118°
2026-05-05 10:07 26.28393 52.56650 34801 ft 507 kts 118°
2026-05-05 10:07 26.25597 52.63819 34799 ft 507 kts 118°
2026-05-05 10:08 26.22828 52.71054 34792 ft 507 kts 117°
2026-05-05 10:08 26.20072 52.78304 34797 ft 507 kts 117°
2026-05-05 10:09 26.17307 52.85535 34800 ft 507 kts 117°
2026-05-05 10:09 26.14552 52.92713 34802 ft 506 kts 117°
2026-05-05 10:10 26.11770 52.99922 34808 ft 506 kts 117°
2026-05-05 10:10 26.09002 53.07133 34801 ft 506 kts 116°
2026-05-05 10:11 26.06337 53.14388 34804 ft 506 kts 116°
2026-05-05 10:11 26.03719 53.21618 34802 ft 506 kts 116°
2026-05-05 10:12 26.01070 53.28864 34804 ft 506 kts 116°
2026-05-05 10:12 25.98391 53.36109 34804 ft 505 kts 116°
2026-05-05 10:13 25.95700 53.43341 34800 ft 505 kts 116°
2026-05-05 10:13 25.93037 53.50526 34802 ft 506 kts 116°
2026-05-05 10:14 25.90468 53.57813 34803 ft 507 kts 114°
2026-05-05 10:14 25.88001 53.65145 34803 ft 507 kts 114°
2026-05-05 10:15 25.85516 53.72473 34801 ft 507 kts 115°
2026-05-05 10:15 25.82979 53.79772 34783 ft 506 kts 115°
2026-05-05 10:16 25.80433 53.87052 34800 ft 506 kts 115°
2026-05-05 10:16 25.77883 53.94339 34802 ft 506 kts 115°
2026-05-05 10:17 25.75367 54.01588 34810 ft 506 kts 114°
2026-05-05 10:17 25.73010 54.08971 34802 ft 508 kts 111°
2026-05-05 10:18 25.70804 54.16427 34797 ft 508 kts 111°
2026-05-05 10:18 25.68575 54.23867 34787 ft 507 kts 111°
2026-05-05 10:19 25.66299 54.31220 34799 ft 507 kts 112°
2026-05-05 10:19 25.63991 54.38608 34797 ft 507 kts 112°
2026-05-05 10:20 25.61681 54.46026 34792 ft 507 kts 112°
2026-05-05 10:20 25.59388 54.53425 34795 ft 507 kts 112°
2026-05-05 10:21 25.57096 54.60768 34794 ft 507 kts 112°
2026-05-05 10:21 25.54751 54.68134 34783 ft 507 kts 112°
2026-05-05 10:22 25.52367 54.75486 34791 ft 506 kts 112°
2026-05-05 10:22 25.50751 54.83087 34786 ft 509 kts 101°
2026-05-05 10:23 25.49621 54.90836 34785 ft 510 kts 101°
2026-05-05 10:23 25.48469 54.98585 34783 ft 510 kts 101°
2026-05-05 10:24 25.47314 55.06339 34778 ft 511 kts 101°
2026-05-05 10:24 25.46154 55.14058 34780 ft 511 kts 101°
2026-05-05 10:25 25.44972 55.21804 34770 ft 509 kts 104°
2026-05-05 10:25 25.42641 55.29138 34761 ft 504 kts 118°
2026-05-05 10:26 25.39666 55.36167 34781 ft 504 kts 118°
2026-05-05 10:26 25.36707 55.43177 34791 ft 505 kts 118°
2026-05-05 10:27 25.33737 55.50206 34795 ft 505 kts 118°
2026-05-05 10:27 25.30761 55.57258 34771 ft 505 kts 117°
2026-05-05 10:28 25.27800 55.64247 34771 ft 505 kts 116°
2026-05-05 10:28 25.25852 55.71714 34774 ft 509 kts 98°
2026-05-05 10:29 25.25150 55.78226 34772 ft 509 kts 97°
2026-05-05 10:29 25.24310 55.85938 34775 ft 509 kts 97°
2026-05-05 10:30 25.23455 55.93703 34784 ft 509 kts 98°
2026-05-05 10:30 25.23309 55.95016 34784 ft 509 kts 98°